User: anonymous
Location: Unspecified
(0.0000°N, 0.0000°E)
Time: 17:53:36
(UTC+00:00)
Language:

NAVSTAR 65 (USA 213) - Orbit

View from above orbital plane
View from above orbital plane
View from above satellite
View from above satellite

Ground track
Ground track

The orbit data is extracted from the following two-line orbital elements,

1 36585U 10022A   14272.47892443 -.00000050  00000-0  00000+0 0  7262
2 36585 055.9860 019.9018 0035192 037.7569 203.7449 02.00578951 31782
Epoch (UTC): 29 September 2014 11:29:39
Eccentricity: 0.0035192
inclination: 55.9860°
perigee height: 20087 km
apogee height: 20274 km
right ascension of ascending node: 19.9018°
argument of perigee: 37.7569°
revolutions per day: 2.00578951
mean anomaly at epoch: 203.7449°
orbit number at epoch: 3178

The dashed part of the orbit path shows where the satellite is in the earth's shadow,  

DLR